Location: Fuglau
(48.6333°N, 15.5500°E)
Time: 14:43:10
(UTC+00:00)

STARLINK-24 - Pass Details

Date: 27 February 2020
Orbit: 527 x 529 km, 53.0° (Epoch: 27 March)

Event Time Altitude Azimuth Distance (km) Brightness Sun altitude
Rises 18:36:52 0° 288° (WNW) 2,665 8.7 -20.4°
Reaches altitude 10° 18:39:08 10° 294° (WNW) 1,776 7.3 -20.8°
Maximum altitude 18:43:03 48° 9° (N) 699 4.1 -21.4°
Enters shadow 18:43:21 47° 26° (NNE) 711 4.0 -21.5°
